Find Starlink 31575

NORAD ID: 59471 Int'l Des: 2024-068 Owner: SPXS Country: US Constellation: starlink operational
LEOCIRCULAR

Current View

Loading 3D Globe...

About Starlink 31575

Starlink 31575 (NORAD 59471) is a starlink constellation satellite (v2 mini) launched Apr 10, 2024 by SPXS of US. It operates in LEO, CIRCULAR orbit with a mass of 730.00 kg.

About Starlink 31575

Description loading...

Upcoming Passes

Passes for default location (London). Set your location on the main map for personalized predictions.

Altitude History

Loading altitude history...

Two-Line Element Set

1 59471U 24068S 26169.71376617 .00000363 00000-0 22711-4 0 9997
2 59471 43.0017 180.4766 0001197 286.1346 73.9374 15.27575565124012
Epoch: Jun 18, 2026 • Age: 12 hours

Current Status

Altitude 491.7 km
Velocity 7.62 km/s
Sub-Earth Point -32.83°S, 56.77°E
Launch Date Apr 10, 2024
Age 2.1 years
Type internet

Technical Details

Classification Payload
Mass 730.00 kg
Dry Mass 700.00 kg
Total Mass 730.00 kg
Length 0.30 m
Diameter 4.10 m
Span 29.00 m
Shape Box + pan
Manufacturer SPXS
Bus Type Starlink V2M
Phase Status In Orbit
Owner/State SPXS/US

Most Searched